#timestamp,LO_Frequency,Hit,StdDev 
1504818015.2,286047002.5,N,1.4
1504818035.0,286047002.1,N,1.4
1504818035.9,286047002.1,N,1.4
1504818055.8,286047002.3,N,1.4
1504818075.6,286047000.2,N,1.4
1504818095.5,286047000.4,N,1.4
1504818115.3,286047000.3,N,1.4
1504818135.1,286046999.8,N,1.3
1504818155.9,286046999.7,N,1.3
1504818175.7,286047002.2,N,1.3
1504818195.5,286047000.1,N,1.3
1504818215.4,286047000.3,N,1.2
1504818235.2,286046999.7,N,1.3
1504818255.1,286047002.1,N,1.2
1504818256.0,286047002.1,N,1.1
1504818275.8,286046999.8,N,1.1
1504818295.6,286046999.9,N,1.2
1504818315.5,286046999.8,N,1.1
1504818335.3,286047000.6,N,1.1
1504818355.2,286047002.4,N,1.1
1504818375.9,286047002.3,N,1.2
1504818395.7,286046999.9,N,1.2
1504818415.6,286047000.7,N,1.2
1504818435.4,286047000.1,N,1.1
1504818455.3,286047000.0,N,1.1
1504818475.1,286047000.0,N,1.1
1504818495.8,286047000.4,N,1.1
1504818515.7,286047002.0,N,1.1
1504818535.5,286047002.6,N,1.1
1504818555.4,286047002.6,N,1.1
1504818575.2,286047002.2,N,1.1
1504818595.0,286047002.7,N,1.1
1504818595.9,286047002.7,N,1.1
1504818615.8,286047002.6,N,1.2
1504818635.6,286047002.6,N,1.2
1504818655.5,286047003.9,Y,0.0
1504818675.3,286047002.0,P,0.5
1504818695.1,286046999.7,N,0.9
1504818715.9,286047000.4,N,0.9
1504818735.7,286046999.9,N,0.8
1504818755.6,286047000.7,N,0.8
1504818775.4,286046999.9,N,0.8
1504818795.2,286046999.7,N,0.8
1504818815.1,286047002.1,N,0.9
1504818816.0,286047002.1,N,1.0
1504818835.8,286047002.7,N,1.1
1504818855.6,286047000.0,N,1.1
1504818875.5,286047002.7,N,1.1
1504818895.3,286046999.9,N,1.1
1504818915.2,286047002.3,N,1.1
1504818935.9,286047001.9,N,1.1
1504818955.7,286047002.6,N,1.1
1504818975.6,286047000.5,N,1.1
1504818995.4,286046999.7,N,1.1
1504819015.3,286046999.9,N,1.1
1504819035.1,286046999.7,N,1.1
1504819036.0,286046999.7,N,1.1
1504819055.8,286047000.6,N,1.1
1504819075.7,286047000.6,N,1.1
1504819095.5,286046999.7,N,1.1
1504819115.3,286046999.8,N,1.1
1504819135.2,286047001.8,N,1.1
1504819155.0,286047001.8,N,1.1
1504819155.9,286047001.8,N,1.1
1504819175.8,286047003.4,Y,0.0
1504819195.6,286047003.7,P,1.4
1504819215.4,286047003.1,N,1.2
1504819235.3,286047003.3,N,1.1
1504819255.1,286047005.9,Y,0.0
1504819275.9,286047002.0,P,0.4
1504819295.7,286047001.8,P,0.4
1504819315.5,286047001.6,P,0.4
1504819335.4,286047001.5,Y,0.0
1504819355.2,286047000.2,P,0.9
1504819375.1,286046999.7,N,1.0
1504819376.0,286046999.7,N,1.0
1504819395.8,286047000.8,N,0.9
1504819415.6,286682706.2,Y,0.0
1504819435.5,286046999.2,P,0.6
1504819455.3,286046998.9,N,0.7
1504819475.2,286046998.7,N,0.7
1504819495.9,286046999.1,N,0.6
1504819515.7,286046997.1,Y,0.0
1504819535.6,286046999.5,P,0.1
1504819555.4,286046996.5,P,1.4
1504819575.3,286046996.9,N,1.4
1504819595.1,286046997.6,N,1.2
1504819596.0,286046997.6,N,1.1
1504819615.8,286046995.4,Y,0.0
1504819635.7,286046997.2,P,0.3
1504819655.5,286046999.3,N,0.9
1504819675.4,286046999.4,N,0.9
1504819695.2,286046998.9,N,0.9
1504819715.0,286046999.3,N,0.8
1504819715.9,286046999.3,N,0.8
1504819735.8,286046997.1,Y,0.0
1504819755.6,286046998.9,P,0.1
1504819775.5,286046998.7,P,0.1
1504819795.3,286047000.7,P,0.8
1504819815.1,286046998.3,N,0.8
1504819835.9,286046999.2,N,0.8
1504819855.7,286046996.6,Y,0.0
1504819875.5,286046999.3,P,0.1
1504819895.4,286046999.5,P,0.2
1504819915.2,286046999.6,N,0.2
1504819935.1,286046999.6,N,0.2
1504819936.0,286046999.6,N,0.2
1504819955.8,286046998.8,Y,0.0
1504819975.6,286046998.3,P,0.6
1504819995.5,286046999.1,N,0.5
1504820015.3,286046999.5,N,0.5
1504820035.2,286046999.1,N,0.4
1504820055.9,286046996.9,Y,0.0
1504820075.7,286046996.5,P,1.3
1504820095.6,286046997.1,N,1.1
1504820115.4,286046995.0,P,1.5
1504820135.3,286046995.7,N,1.4
1504820155.1,286046995.5,Y,0.0
1504820156.0,286046995.5,P,0.6
1504820175.8,286047000.2,N,2.0
1504820195.7,286047000.8,N,2.3
1504820215.5,286047001.0,N,2.3
1504820235.4,286046999.3,N,2.1
1504820255.2,286046998.6,N,1.9
1504820275.0,286046998.1,N,1.8
1504820275.9,286046998.1,N,1.7
1504820295.8,286046998.5,N,1.7
1504820315.6,286046998.4,N,1.6
1504820335.4,286046998.6,N,1.5
1504820355.3,286046998.6,N,1.5
1504820375.1,286046999.3,N,1.4
1504820395.9,286046998.8,N,1.4
1504820415.7,286046999.6,N,1.3
1504820435.5,286046999.6,N,1.3
1504820455.4,286046997.1,N,1.3
1504820475.2,286046995.1,Y,0.0
1504820495.1,286046999.1,P,0.2
1504820496.0,286046999.1,P,0.2
1504820515.8,286046996.5,P,1.1
1504820535.6,286046996.8,N,1.1
1504820555.5,286046997.5,N,1.1
1504820575.3,286046997.2,N,1.0
1504820595.2,286046999.1,N,1.0
1504820615.9,286046999.5,N,1.1
1504820635.7,286046997.4,N,1.1
1504820655.6,286046996.6,Y,0.0
1504820675.4,286046998.6,P,0.3
1504820695.2,286046999.2,P,0.5
1504820715.1,286046999.6,N,0.6
1504820716.0,286046999.6,N,0.6
1504820735.8,286047001.2,N,1.0
1504820755.7,286047000.9,N,1.0
1504820775.5,286047000.9,N,1.1
1504820795.3,286046998.8,N,1.1
1504820815.2,286046999.3,N,1.0
1504820835.0,286046998.9,N,1.0
1504820835.9,286046998.9,N,1.0
1504820855.8,286046998.9,N,0.9
1504820875.6,286046998.6,N,0.9
1504820895.4,286046998.9,N,0.9
1504820915.3,286046999.2,N,0.9
1504820935.1,286046997.0,Y,0.0
1504820955.9,286046996.6,P,1.4
1504820975.7,286046997.3,N,1.2
1504820995.5,286046997.7,N,1.0
1504821015.4,286046996.8,Y,0.0
1504821035.2,286047001.1,P,1.7
1504821055.1,286047000.7,N,1.5
1504821056.0,286047000.7,N,1.4
1504821075.8,286047000.4,N,1.2
1504821095.6,286047001.1,N,1.2
1504821115.5,286047000.7,N,1.1
1504821135.3,286047000.4,N,1.0
1504821155.2,286047000.9,N,1.0
1504821175.9,286047000.7,N,0.9
1504821195.7,286047000.8,N,0.9
1504821215.6,286047000.0,N,0.9
1504821235.4,286047000.7,N,0.8
1504821255.2,286046998.3,N,1.0
1504821275.1,286046998.8,N,1.0
1504821276.0,286046998.8,N,1.0
1504821295.8,286046999.2,N,1.0
1504821315.7,286046996.6,Y,0.0
1504821335.5,286046999.2,P,0.4
1504821355.3,286046999.2,N,0.4
1504821375.2,286046996.9,P,1.2
1504821395.0,286046997.1,N,1.3
1504821395.9,286046997.1,N,1.3
1504821415.8,286046996.8,N,1.3
1504821435.6,286046997.7,N,1.2
1504821455.4,286046997.9,N,1.1
1504821475.3,286046997.5,N,1.1
1504821495.1,286046995.0,Y,0.0
1504821515.9,286046999.0,P,0.5
1504821535.7,286046998.4,P,0.4
1504821555.5,286047000.3,N,0.9
1504821575.4,286047000.8,N,1.1
1504821595.2,286047000.4,N,1.1
